This is the latest recevied weather packets stored in our database for station/object KC3UTO. If no packets are shown the sender has not sent any weather packets the latest 10 day(s).
| Time | Temp. | Humidity | Pressure | Rain* | Wind** | Luminosity | Snow |
|---|---|---|---|---|---|---|---|
| 1788485127 | 24.44° C | 88% | 1013.1 hPa | 0 mm | - | 0 W/m² | - |
| 1788484826 | 24.44° C | 89% | 1013 hPa | 0 mm | - | 0 W/m² | - |
| 1788484525 | 24.44° C | 88% | 1013.1 hPa | 0 mm | - | 0 W/m² | - |
| 1788484221 | 24.44° C | 87% | 1013.1 hPa | 0 mm | - | 0 W/m² | - |
| 1788483918 | 25° C | 86% | 1013.4 hPa | 0 mm | - | 0 W/m² | - |
| 1788483614 | 25.56° C | 84% | 1013.4 hPa | 0 mm | - | 0 W/m² | - |
| 1788483313 | 25° C | 85% | 1013.4 hPa | 0 mm | - | 0 W/m² | - |
| 1788483009 | 25° C | 86% | 1013.3 hPa | 0 mm | - | 0 W/m² | - |
| 1788482704 | 25° C | 86% | 1012.6 hPa | 0 mm | - | 0 W/m² | - |
| 1788482404 | 25.56° C | 84% | 1013.1 hPa | 0 mm | - | 0 W/m² | - |
| 1788482100 | 25.56° C | 84% | 1013.2 hPa | 0 mm | - | 0 W/m² | - |
| 1788481795 | 25.56° C | 84% | 1013 hPa | 0 mm | - | 0 W/m² | - |
| 1788481492 | 25.56° C | 84% | 1013 hPa | 0 mm | - | 0 W/m² | - |
| 1788481191 | 25.56° C | 85% | 1012.8 hPa | 0 mm | - | 0 W/m² | - |
| 1788480888 | 25.56° C | 84% | 1012.8 hPa | 0 mm | - | 0 W/m² | - |
| 1788480587 | 25.56° C | 83% | 1012.7 hPa | 0 mm | - | 0 W/m² | - |
| 1788480286 | 25.56° C | 83% | 1012.4 hPa | 0 mm | - | 0 W/m² | - |
| 1788479982 | 26.11° C | 82% | 1012.3 hPa | 0 mm | - | 0 W/m² | - |
| 1788479678 | 26.11° C | 82% | 1012.4 hPa | 0 mm | - | 0 W/m² | - |
| 1788479377 | 26.11° C | 81% | 1012.3 hPa | 0 mm | - | 0 W/m² | - |
| 1788479073 | 26.67° C | 80% | 1012.3 hPa | 0 mm | - | 0 W/m² | - |
| 1788478770 | 27.22° C | 76% | 1012.4 hPa | 0 mm | - | 0 W/m² | - |
| 1788478466 | 27.22° C | 74% | 1012.3 hPa | 0 mm | - | 1 W/m² | - |
| 1788478174 | 27.78° C | 74% | 1012.4 hPa | 0 mm | - | 2 W/m² | - |
| 1788477861 | 27.78° C | 73% | 1012.7 hPa | 0 mm | - | 3 W/m² | - |
* Rain latest hour (hover to see other rain measurements)
** Current wind speed in m/s (hover to see current wind gust speed)